Nett Lake, MN

12:36 AM CDT on September 25, 2016 (GMT -0500)
Orr Regional

Weather History for KORB - March, 2013

Change the Weather History Date:

Sunday, March 3, 2013

  Actual Average Record
Temperature  
Mean Temperature 20 °F -  
Max Temperature 33 °F 22 °F 33 °F (2005)
Min Temperature 6 °F 4 °F -31 °F (2014)
Degree Days  
Heating Degree Days 46    
Moisture  
Dew Point 2 °F    
Average Humidity 46    
Maximum Humidity 85    
Minimum Humidity 23    
Precipitation  
Precipitation 0.00 in - - ()
Sea Level Pressure  
Sea Level Pressure 30.03 in    
Wind  
Wind Speed 4 mph (SE)    
Max Wind Speed 9 mph    
Max Gust Speed -    
Visibility 10 miles    
Events      
Averages and records for this station are not official NWS values.
T = Trace of Precipitation, MM = Missing Value Source: NWS Daily Summary

Daily Weather History Graph

Daily Weather History Graph

Search for Another Location

Airport or City:

Trip Planner

Search our weather history database for the weather conditions in past years. The results will help you decide how hot, cold, wet, or windy it might be!

Date:

Astronomy

Mar. 03, 2013 Rise Set
Actual Time 6:47 AM CST 5:59 PM CST
Civil Twilight 6:16 AM CST 6:30 PM CST
Nautical Twilight 5:41 AM CST 7:06 PM CST
Astronomical Twilight 5:04 AM CST 7:42 PM CST
Moon 12:07 AM CST (3/3) 9:33 AM CST (3/3)
Length of Visible Light 12h 13m
Length of Day
11h 11m
Waning Gibbous, 63% of the Moon is Illuminated
Mar 3
Waning Gibbous
Mar 4
Last Quarter
Mar 11
New
Mar 19
First Quarter
Mar 27
Full

Hourly Weather History & Observations

Time (CST) Temp. Windchill Dew Point Humidity Pressure Visibility Wind Dir Wind Speed Gust Speed Precip Events Conditions
12:13 AM 12.2 °F 6.1 °F -2.2 °F 53% 30.10 in 10.0 mi ESE 3.5 mph - N/A   Clear
12:33 AM 12.2 °F 6.1 °F -0.4 °F 57% 30.09 in 10.0 mi ESE 3.5 mph - N/A   Mostly Cloudy
12:53 AM 12.2 °F - -0.4 °F 57% 30.09 in 10.0 mi Calm Calm - N/A   Overcast
1:33 AM 12.2 °F 6.1 °F 1.4 °F 62% 30.09 in 10.0 mi SE 3.5 mph - N/A   Overcast
1:53 AM 12.2 °F - 3.2 °F 67% 30.09 in 10.0 mi Calm Calm - N/A   Overcast
2:13 AM 12.2 °F 6.1 °F 3.2 °F 67% 30.08 in 10.0 mi SE 3.5 mph - N/A   Overcast
2:34 AM 12.2 °F - 1.4 °F 62% 30.08 in 10.0 mi Calm Calm - N/A   Overcast
2:53 AM 10.4 °F 4.0 °F 1.4 °F 67% 30.07 in 10.0 mi ESE 3.5 mph - N/A   Overcast
3:13 AM 10.4 °F - 1.4 °F 67% 30.07 in 10.0 mi Calm Calm - N/A   Overcast
3:33 AM 10.4 °F 2.2 °F 1.4 °F 67% 30.07 in 10.0 mi ESE 4.6 mph - N/A   Overcast
3:53 AM 10.4 °F 4.0 °F 1.4 °F 67% 30.07 in 10.0 mi ESE 3.5 mph - N/A   Overcast
4:13 AM 10.4 °F 4.0 °F 1.4 °F 67% 30.07 in 10.0 mi SE 3.5 mph - N/A   Overcast
4:33 AM 10.4 °F - 1.4 °F 67% 30.07 in 10.0 mi Calm Calm - N/A   Overcast
4:53 AM 10.4 °F - 1.4 °F 67% 30.07 in 10.0 mi Calm Calm - N/A   Overcast
5:13 AM 8.6 °F - 1.4 °F 73% 30.07 in 10.0 mi Calm Calm - N/A   Overcast
5:53 AM 8.6 °F - 3.2 °F 79% 30.07 in 10.0 mi Calm Calm - N/A   Overcast
6:13 AM 6.8 °F -0.1 °F 3.2 °F 85% 30.07 in 10.0 mi ESE 3.5 mph - N/A   Mostly Cloudy
6:53 AM 8.6 °F 2.0 °F 3.2 °F 79% 30.07 in 10.0 mi ESE 3.5 mph - N/A   Scattered Clouds
7:13 AM 8.6 °F 0.1 °F 3.2 °F 79% 30.06 in 10.0 mi ESE 4.6 mph - N/A   Clear
7:34 AM 8.6 °F 0.1 °F 3.2 °F 79% 30.06 in 10.0 mi East 4.6 mph - N/A   Clear
7:53 AM 10.4 °F 2.2 °F 5.0 °F 79% 30.06 in 10.0 mi ESE 4.6 mph - N/A   Clear
8:13 AM 12.2 °F 6.1 °F 5.0 °F 73% 30.06 in 10.0 mi ESE 3.5 mph - N/A   Clear
8:34 AM 14.0 °F 6.5 °F 6.8 °F 73% 30.05 in 10.0 mi ESE 4.6 mph - N/A   Clear
8:53 AM 17.6 °F 10.7 °F 6.8 °F 63% 30.05 in 10.0 mi SE 4.6 mph - N/A   Clear
9:14 AM 19.4 °F 10.4 °F 5.0 °F 54% 30.04 in 10.0 mi SE 6.9 mph - N/A   Clear
9:33 AM 21.2 °F 13.6 °F 3.2 °F 46% 30.04 in 10.0 mi SSE 5.8 mph - N/A   Clear
9:54 AM 23.0 °F 14.7 °F 3.2 °F 43% 30.05 in 10.0 mi SSE 6.9 mph - N/A   Clear
10:13 AM 24.8 °F 16.1 °F 3.2 °F 40% 30.04 in 10.0 mi SSE 8.1 mph - N/A   Clear
10:33 AM 24.8 °F 16.9 °F 3.2 °F 40% 30.04 in 10.0 mi SSE 6.9 mph - N/A   Clear
10:53 AM 26.6 °F 19.1 °F 3.2 °F 37% 30.04 in 10.0 mi SE 6.9 mph - N/A   Clear
11:13 AM 28.4 °F 22.2 °F 1.4 °F 31% 30.03 in 10.0 mi SE 5.8 mph - N/A   Clear
11:33 AM 28.4 °F 20.4 °F 1.4 °F 31% 30.03 in 10.0 mi SSE 8.1 mph - N/A   Clear
11:53 AM 30.2 °F 22.6 °F 1.4 °F 29% 30.02 in 10.0 mi South 8.1 mph - N/A   Clear
12:13 PM 30.2 °F 22.6 °F -0.4 °F 27% 30.02 in 10.0 mi South 8.1 mph - N/A   Clear
12:33 PM 30.2 °F 21.9 °F -0.4 °F 27% 30.01 in 10.0 mi SE 9.2 mph - N/A   Clear
12:54 PM 32.0 °F 24.2 °F -2.2 °F 23% 30.01 in 10.0 mi SSE 9.2 mph - N/A   Clear
1:13 PM 30.2 °F 22.6 °F -0.4 °F 27% 30.00 in 10.0 mi South 8.1 mph - N/A   Clear
1:33 PM 32.0 °F 25.6 °F 1.4 °F 27% 30.00 in 10.0 mi SSE 6.9 mph - N/A   Clear
1:53 PM 32.0 °F 26.4 °F 1.4 °F 27% 29.99 in 10.0 mi South 5.8 mph - N/A   Clear
2:33 PM 33.8 °F 27.7 °F 1.4 °F 25% 29.98 in 10.0 mi SSE 6.9 mph - N/A   Clear
2:53 PM 33.8 °F 30.8 °F -0.4 °F 23% 29.98 in 10.0 mi ESE 3.5 mph - N/A   Scattered Clouds
3:14 PM 33.8 °F 27.7 °F -0.4 °F 23% 29.97 in 10.0 mi SE 6.9 mph - N/A   Scattered Clouds
3:33 PM 33.8 °F 28.6 °F -0.4 °F 23% 29.97 in 10.0 mi ESE 5.8 mph - N/A   Clear
3:53 PM 33.8 °F 27.7 °F -0.4 °F 23% 29.97 in 10.0 mi SE 6.9 mph - N/A   Mostly Cloudy
4:13 PM 33.8 °F 27.0 °F -0.4 °F 23% 29.97 in 10.0 mi SSE 8.1 mph - N/A   Overcast
4:33 PM 32.0 °F 27.5 °F -0.4 °F 25% 29.97 in 10.0 mi SE 4.6 mph - N/A   Mostly Cloudy
4:53 PM 30.2 °F 25.4 °F -2.2 °F 25% 29.98 in 10.0 mi SE 4.6 mph - N/A   Overcast
5:13 PM 30.2 °F 26.7 °F -2.2 °F 25% 29.98 in 10.0 mi SSE 3.5 mph - N/A   Overcast
5:33 PM 30.2 °F 25.4 °F -2.2 °F 25% 29.98 in 10.0 mi SSE 4.6 mph - N/A   Overcast
5:53 PM 28.4 °F 23.3 °F -0.4 °F 29% 29.98 in 10.0 mi SE 4.6 mph - N/A   Overcast
6:13 PM 28.4 °F 24.6 °F -0.4 °F 29% 29.98 in 10.0 mi SE 3.5 mph - N/A   Overcast
6:34 PM 28.4 °F 24.6 °F -0.4 °F 29% 29.98 in 10.0 mi ESE 3.5 mph - N/A   Overcast
6:54 PM 26.6 °F - 1.4 °F 34% 29.99 in 10.0 mi Calm Calm - N/A   Overcast
7:13 PM 28.4 °F 22.2 °F 3.2 °F 34% 29.99 in 10.0 mi SE 5.8 mph - N/A   Overcast
7:33 PM 26.6 °F 20.0 °F 3.2 °F 37% 29.99 in 10.0 mi SSE 5.8 mph - N/A   Overcast
7:53 PM 26.6 °F 19.1 °F 3.2 °F 37% 29.99 in 10.0 mi SSE 6.9 mph - N/A   Overcast
8:13 PM 26.6 °F 20.0 °F 3.2 °F 37% 30.00 in 10.0 mi SE 5.8 mph - N/A   Overcast
8:33 PM 26.6 °F 19.1 °F 1.4 °F 34% 30.00 in 10.0 mi SE 6.9 mph - N/A   Overcast
8:53 PM 24.8 °F 19.1 °F 3.2 °F 40% 30.00 in 10.0 mi ESE 4.6 mph - N/A   Overcast
9:13 PM 24.8 °F 19.1 °F 1.4 °F 36% 30.00 in 10.0 mi ESE 4.6 mph - N/A   Overcast
9:33 PM 24.8 °F 16.9 °F 5.0 °F 43% 30.00 in 10.0 mi ESE 6.9 mph - N/A   Overcast
9:53 PM 24.8 °F 17.9 °F 6.8 °F 46% 30.00 in 10.0 mi ESE 5.8 mph - N/A   Overcast
10:13 PM 23.0 °F 17.0 °F 6.8 °F 50% 30.00 in 10.0 mi SE 4.6 mph - N/A   Overcast
10:34 PM 21.2 °F - 6.8 °F 54% 30.00 in 10.0 mi Calm Calm - N/A   Overcast
10:53 PM 21.2 °F 16.4 °F 3.2 °F 46% 30.00 in 10.0 mi ESE 3.5 mph - N/A   Scattered Clouds
11:13 PM 19.4 °F 12.8 °F -0.4 °F 42% 30.01 in 10.0 mi ESE 4.6 mph - N/A   Clear
11:33 PM 19.4 °F 12.8 °F -7.6 °F 30% 30.02 in 10.0 mi ESE 4.6 mph - N/A   Clear
11:53 PM 17.6 °F 10.7 °F -7.6 °F 32% 30.02 in 10.0 mi ESE 4.6 mph - N/A   Clear